Powrót do katalogu

NOAA 16 DEB

LostSSO
NORAD 42370·DEBRIS·🇺🇸 United States

Wystrzelony Sep 21, 2000 z Vandenberg Space Force Base

Loading…

Następne Przeloty (najbliższe 24 godziny)

TLE

NieaktualneSource: Space-Track

Epoka: Apr 12, 2021, 21:52 UTC

1 42370U 00055RN  21102.91145775  .00001669  00000-0  11274-2 0  9990
2 42370  98.9659 141.5894 0104579 319.6632  39.6808 13.99198564265655

Śledź NOAA 16 DEB w czasie rzeczywistym z AllMySat

Download on the App Store